Location: Krakow
(50.0830°N, 19.9170°E)
Time: 21:29:54
(UTC+01:00)

Altair - Pass Details

Date: 04 December 2023
Orbit: 1501 x 1682 km, 47.2° (Epoch: 03 March)

Event Time Altitude Azimuth Distance (km) Brightness Sun altitude
Rises 10:36:13 0° 260° (W) 4,777 10.1 16.7°
Reaches altitude 10° 10:39:20 10° 259° (W) 3,768 9.6 16.8°
Maximum altitude 10:48:49 76° 176° (S) 1,576 8.2 17.1°
Drops below altitude 10° 10:58:00 10° 93° (E) 3,662 9.7 17.3°
Sets 11:01:00 0° 92° (E) 4,637 10.1 17.4°
